星链-31010 (STARLINK-31010 )

导读 | 豆包AI

STARLINK-31010是美国太空探索技术公司(SpaceX)星链互联网卫星项目中的一颗卫星,于北京时间2023年12月7日发射入轨。作为星链星座的组成部分,它旨在为全球提供高速低延迟互联网服务,尤其服务偏远地区和网络基础设施薄弱区域,进一步扩充了星链星座的在轨运行卫星规模,推动全球卫星互联网组网进程。

Basic Information
目录编号:
58519
目录名称:
STARLINK-31010
国际标识:
2023-191M
轨道中心:
EARTH
卫星名称:
星链-31010
卫星全名:
星链-31010 (STARLINK-31010 )
卫星状态:
在轨 (已飞行875 天)
发射日期:
2023-12-07 UTC
国别 :
美国 (US)
星等 :
--
Orbit Information
数据来源 国际轨道数据 AOE轨道数据
星历时间 2026-04-30T20:04:44+0800
10小时前
查看轨道信息
2026-04-28T14:00:00+0800
2天前
查看轨道信息
半长轴 6861.188km 6861.154km
偏心率 0.0001104 0.0002645
轨道倾角 43.001° 43.006°
近地点辐角 268.847° 311.166°
升交点赤经 170.924° 183.655°
平近点角 91.226° 242.936°
近地点 482.293km 481.202km
远地点 483.809km 484.832km
周期 94.267分钟 94.266分钟
每日圈数 15.275794 15.275909
Detailed Information
固有亮度:
5
最大亮度:
0.3
卫星平台:
Starlink v2.0 mini
覆盖范围:
全球
运营商:
太空探索技术公司
运营商所在国:
美国
制造商(研发单位):
太空探索技术公司
制造商所在国:
美国
使用方式:
暂无
Satellite Introduction
星链(Starlink)计划是由太空探索技术公司(SpaceX)提出的一个巨型低轨卫星互联网星座项目,计划在2019年至2024年间在太空搭建由约1.2万颗卫星组成的“星链”网络,其中1584颗将部署在地球上空550千米处的近地轨道,并从2020年开始工作。该卫星仍在工作。
2D Orbit Map
3D Orbit Map
Orbit Altitude Analysis Chart
Orbit Inclination Analysis Chart
Orbit Comprehensive Analysis Chart
View Comprehensive Chart